Weather Roundup
Issued by NWS Springfield, MO

Home | Current Version | Previous Version | Text Only | Print | Product List | Glossary On
Versions: 1 2 3 4 5 6 7 8 9 10 11 12 13 14 15 16 17 18 19 20 21 22 23 24 25 26 27 28 29 30 31 32 33 34 35 36 37 38 39 40 41 42 43 44 45 46 47 48 49 50
000
NZUS99 KSGF 200057
HRRSGF

HOURLY WEATHER
NATIONAL WEATHER SERVICE SPRINGFIELD MO
700 PM CST SUN FEB 19 2017

......SGF CWA......

CITY           SKY/WX    TMP DP  RH WIND       PRES   REMARKS
SPRINGFIELD    CLEAR     67  56  67 SE15      29.96R
JOPLIN         PTCLDY    69  54  58 S10       29.93R
WEST PLAINS    PTCLDY    63  55  75 S9        30.05R
ROLLA          CLEAR     64  50  60 MISG      29.98R
BRANSON        PTCLDY    64  55  72 SE12G20   30.01R

......SURROUNDING SGF CWA......

CITY           SKY/WX    TMP DP  RH WIND       PRES   REMARKS
CHANUTE        CLOUDY    66  55  67 S9        29.90S
PARSONS        CLOUDY    67  56  67 SE6       29.90F
COFFEYVILLE    PTCLDY    66  57  72 SE10      29.89F
EMPORIA        PTCLDY    58  53  84 SE9       29.87R
HARRISON AR    CLEAR     63  56  78 SE12      30.01R

......KANSAS AND MISSOURI......

CITY           SKY/WX    TMP DP  RH WIND       PRES   REMARKS
KANSAS CTY INT CLOUDY    63  53  70 S8        29.88S
SEDALIA        PTCLDY    66  49  54 SE9       29.95R
ST JOSEPH      PTCLDY    66  55  67 SE9       29.87R
ST LOUIS       PTCLDY    63  51  65 SE10      30.02R
WICHITA        CLOUDY    62  55  77 E3        29.84R
TOPEKA         MOCLDY    58  51  78 E5        29.86S
OLATHE         PTCLDY    64  54  69 S8        29.90R

......TENNESSEE......

CITY           SKY/WX    TMP DP  RH WIND       PRES   REMARKS
MEMPHIS        NOT AVBL
NASHVILLE      CLEAR     60  49  66 E5        30.12R

......ARKANSAS.......

CITY           SKY/WX    TMP DP  RH WIND       PRES   REMARKS
FAYETTEVILLE   CLOUDY    68  58  70 SE6       29.96S
FT SMITH       MOCLDY    69  56  62 SE10      29.95R
LITTLE ROCK    CLEAR     65  55  70 SE8       30.01R

......OKLAHOMA.......

CITY           SKY/WX    TMP DP  RH WIND       PRES   REMARKS
TULSA          CLOUDY    69  60  73 SE9       29.86F
MCALESTER      MOCLDY    66  60  81 SE8G18    29.90S
OKLAHOMA CITY  CLOUDY    63  61  93 SE17      29.82F FOG

......IOWA............

CITY           SKY/WX    TMP DP  RH WIND       PRES   REMARKS
DES MOINES     NOT AVBL
QUAD CITIES    CLOUDY    60  43  53 SE12      29.99R

......ILLINOIS........

CITY           SKY/WX    TMP DP  RH WIND       PRES   REMARKS
QUINCY         PTCLDY    62  47  57 SE8       29.98S
CHICAGO        PTCLDY    51  32  48 E6        30.06S




USA.gov is the U.S. government's official web portal to all federal, state and local government web resources and services.